Madisonville, KY

2:26 PM CDT on July 24, 2017 (GMT -0500)
Madisonville

Weather History for K2I0 - October, 2013

Change the Weather History Date:

Wednesday, October 23, 2013

  Actual Average (KOWB) Record (KOWB)
Temperature  
Mean Temperature 46 °F -  
Max Temperature 53 °F 67 °F 89 °F (1963)
Min Temperature 39 °F 44 °F 26 °F (1952)
Degree Days  
Heating Degree Days 20    
Moisture  
Dew Point 37 °F    
Average Humidity 71    
Maximum Humidity 94    
Minimum Humidity 46    
Precipitation  
Precipitation 0.00 in - - ()
Sea Level Pressure  
Sea Level Pressure 30.04 in    
Wind  
Wind Speed 10 mph (NW)    
Max Wind Speed 16 mph    
Max Gust Speed 28 mph    
Visibility 10 miles    
Events      
Averages and records for this station are not official NWS values.
T = Trace of Precipitation, MM = Missing Value Source: NWS Daily Summary

Daily Weather History Graph

Daily Weather History Graph

Search for Another Location

Airport or City:

Trip Planner

Search our weather history database for the weather conditions in past years. The results will help you decide how hot, cold, wet, or windy it might be!

Date:

Astronomy

Oct. 23, 2013 Rise Set
Actual Time 7:05 AM CDT 6:01 PM CDT
Civil Twilight 6:38 AM CDT 6:28 PM CDT
Nautical Twilight 6:08 AM CDT 6:58 PM CDT
Astronomical Twilight 5:38 AM CDT 7:28 PM CDT
Moon 9:35 PM CDT (10/23) 11:19 AM CDT (10/23)
Length of Visible Light 11h 49m
Length of Day
10h 56m
Waning Gibbous, 79% of the Moon is Illuminated
Oct 23
Waning Gibbous
Oct 26
Last Quarter
Nov 3
New
Nov 9
First Quarter
Nov 17
Full

Hourly Weather History & Observations

Time (CDT) Temp. Windchill Dew Point Humidity Pressure Visibility Wind Dir Wind Speed Gust Speed Precip Events Conditions
12:15 AM 50.4 °F - 46.2 °F 86% 29.87 in 10.0 mi WNW 12.7 mph - N/A   Clear
12:35 AM 50.0 °F - 46.0 °F 86% 29.87 in 10.0 mi WNW 10.4 mph 16.1 mph N/A   Scattered Clouds
12:55 AM 50.0 °F - 43.9 °F 79% 29.88 in 10.0 mi NW 16.1 mph 25.3 mph N/A   Overcast
1:15 AM 49.1 °F - 42.1 °F 77% 29.88 in 10.0 mi NW 9.2 mph 18.4 mph N/A   Overcast
1:35 AM 48.6 °F - 41.9 °F 78% 29.88 in 10.0 mi NW 9.2 mph 17.3 mph N/A   Overcast
1:55 AM 48.7 °F - 42.1 °F 78% 29.88 in 10.0 mi NW 12.7 mph 18.4 mph N/A   Overcast
2:15 AM 48.2 °F - 41.2 °F 77% 29.90 in 10.0 mi NNW 16.1 mph 23.0 mph N/A   Overcast
2:35 AM 47.3 °F - 38.8 °F 72% 29.90 in 10.0 mi NW 16.1 mph 24.2 mph N/A   Overcast
2:55 AM 46.4 °F 40.1 °F 38.7 °F 74% 29.90 in 10.0 mi WNW 15.0 mph 19.6 mph N/A   Overcast
3:15 AM 46.2 °F 40.8 °F 39.2 °F 76% 29.90 in 10.0 mi NW 11.5 mph 24.2 mph N/A   Overcast
3:35 AM 45.7 °F 39.1 °F 39.0 °F 78% 29.91 in 10.0 mi NW 15.0 mph 24.2 mph N/A   Overcast
3:55 AM 45.5 °F 39.6 °F 38.7 °F 77% 29.92 in 10.0 mi NW 12.7 mph 19.6 mph N/A   Overcast
4:15 AM 44.8 °F 38.0 °F 38.3 °F 78% 29.93 in 10.0 mi NW 15.0 mph 27.6 mph N/A   Overcast
4:35 AM 44.6 °F 39.7 °F 37.4 °F 76% 29.94 in 10.0 mi NW 9.2 mph 23.0 mph N/A   Overcast
4:55 AM 44.6 °F 38.8 °F 37.4 °F 76% 29.94 in 10.0 mi NW 11.5 mph 17.3 mph N/A   Overcast
5:15 AM 44.6 °F 37.8 °F 37.4 °F 76% 29.96 in 10.0 mi NNW 15.0 mph 19.6 mph N/A   Overcast
5:35 AM 44.2 °F 39.7 °F 37.4 °F 77% 29.97 in 10.0 mi NW 8.1 mph 18.4 mph N/A   Overcast
5:55 AM 43.9 °F 37.9 °F 37.6 °F 78% 29.98 in 10.0 mi NNW 11.5 mph 16.1 mph N/A   Overcast
6:15 AM 43.7 °F 38.1 °F 37.6 °F 79% 29.99 in 10.0 mi NNW 10.4 mph 17.3 mph N/A   Overcast
6:35 AM 43.5 °F 37.9 °F 37.6 °F 80% 29.99 in 10.0 mi NNW 10.4 mph - N/A   Overcast
6:55 AM 43.3 °F 36.8 °F 37.4 °F 80% 30.01 in 10.0 mi NW 12.7 mph 20.7 mph N/A   Overcast
7:15 AM 43.0 °F 37.7 °F 36.7 °F 78% 30.02 in 10.0 mi NW 9.2 mph - N/A   Overcast
7:35 AM 43.0 °F 38.8 °F 36.5 °F 78% 30.02 in 10.0 mi NNW 6.9 mph - N/A   Overcast
7:55 AM 43.2 °F 39.0 °F 36.7 °F 78% 30.03 in 10.0 mi NNW 6.9 mph - N/A   Overcast
8:15 AM 43.3 °F 37.7 °F 36.7 °F 77% 30.05 in 10.0 mi NW 10.4 mph - N/A   Overcast
8:35 AM 43.7 °F 39.7 °F 36.5 °F 76% 30.05 in 10.0 mi NNW 6.9 mph - N/A   Overcast
8:55 AM 44.2 °F 38.8 °F 35.6 °F 72% 30.07 in 10.0 mi NW 10.4 mph 17.3 mph N/A   Overcast
9:15 AM 44.6 °F 39.2 °F 34.9 °F 69% 30.08 in 10.0 mi NNW 10.4 mph 18.4 mph N/A   Overcast
9:35 AM 45.9 °F 40.4 °F 34.9 °F 66% 30.09 in 10.0 mi NNW 11.5 mph 16.1 mph N/A   Overcast
9:55 AM 46.9 °F - 35.4 °F 64% 30.09 in 10.0 mi NW 6.9 mph - N/A   Mostly Cloudy
10:15 AM 46.2 °F 41.2 °F 35.2 °F 66% 30.09 in 10.0 mi NW 10.4 mph - N/A   Mostly Cloudy
10:35 AM 47.1 °F - 34.9 °F 62% 30.09 in 10.0 mi NW 9.2 mph - N/A   Mostly Cloudy
10:55 AM 47.7 °F - 34.9 °F 61% 30.10 in 10.0 mi NNW 8.1 mph 19.6 mph N/A   Mostly Cloudy
11:15 AM 48.2 °F - 35.1 °F 60% 30.10 in 10.0 mi WNW 12.7 mph 21.9 mph N/A   Mostly Cloudy
11:35 AM 48.2 °F - 35.2 °F 61% 30.10 in 10.0 mi NNW 12.7 mph 18.4 mph N/A   Overcast
11:55 AM 48.2 °F - 34.7 °F 60% 30.11 in 10.0 mi NNW 6.9 mph 16.1 mph N/A   Mostly Cloudy
12:15 PM 48.4 °F - 35.2 °F 60% 30.10 in 10.0 mi NW 9.2 mph 17.3 mph N/A   Mostly Cloudy
12:35 PM 48.6 °F - 34.0 °F 57% 30.09 in 10.0 mi NW 11.5 mph 24.2 mph N/A   Mostly Cloudy
12:55 PM 51.3 °F - 34.2 °F 52% 30.09 in 10.0 mi NW 10.4 mph - N/A   Overcast
1:15 PM 49.6 °F - 34.3 °F 56% 30.09 in 10.0 mi NW 8.1 mph - N/A   Overcast
1:35 PM 48.9 °F - 34.3 °F 57% 30.09 in 10.0 mi WNW 11.5 mph 17.3 mph N/A   Overcast
1:55 PM 49.6 °F - 33.8 °F 54% 30.09 in 10.0 mi WNW 8.1 mph - N/A   Overcast
2:15 PM 49.3 °F - 33.6 °F 55% 30.09 in 10.0 mi North 11.5 mph - N/A   Overcast
2:35 PM 50.9 °F - 33.3 °F 51% 30.09 in 10.0 mi NW 9.2 mph - N/A   Overcast
2:55 PM 49.5 °F - 33.1 °F 53% 30.09 in 10.0 mi NW 8.1 mph - N/A   Mostly Cloudy
3:15 PM 51.6 °F - 33.3 °F 50% 30.08 in 10.0 mi WNW 10.4 mph - N/A   Scattered Clouds
3:35 PM 52.0 °F - 32.2 °F 47% 30.08 in 10.0 mi NW 3.5 mph - N/A   Scattered Clouds
3:55 PM 52.9 °F - 32.7 °F 46% 30.09 in 10.0 mi WNW 9.2 mph - N/A   Mostly Cloudy
4:15 PM 51.3 °F - 31.3 °F 46% 30.09 in 10.0 mi WNW 9.2 mph - N/A   Scattered Clouds
4:35 PM 52.3 °F - 31.8 °F 46% 30.09 in 10.0 mi NW 9.2 mph - N/A   Scattered Clouds
4:55 PM 50.9 °F - 32.0 °F 48% 30.09 in 10.0 mi NW 4.6 mph - N/A   Scattered Clouds
5:15 PM 50.7 °F - 32.4 °F 49% 30.09 in 10.0 mi WNW 4.6 mph - N/A   Scattered Clouds
5:35 PM 49.1 °F - 32.0 °F 52% 30.09 in 10.0 mi NW 6.9 mph - N/A   Clear
5:55 PM 47.1 °F - 32.4 °F 57% 30.09 in 10.0 mi NW 3.5 mph - N/A   Clear
6:15 PM 45.7 °F 43.4 °F 32.9 °F 61% 30.09 in 10.0 mi NNW 4.6 mph - N/A   Clear
6:35 PM 44.1 °F - 33.3 °F 66% 30.10 in 10.0 mi Calm Calm - N/A   Clear
6:55 PM 44.4 °F - 33.6 °F 66% 30.09 in 10.0 mi Calm Calm - N/A   Scattered Clouds
7:15 PM 43.0 °F - 34.0 °F 71% 30.10 in 10.0 mi Calm Calm - N/A   Clear
7:35 PM 41.2 °F - 34.9 °F 78% 30.09 in 10.0 mi Calm Calm - N/A   Clear
7:55 PM 41.0 °F - 35.1 °F 79% 30.10 in 10.0 mi Calm Calm - N/A   Scattered Clouds
8:15 PM 41.0 °F - 36.3 °F 83% 30.10 in 10.0 mi Calm Calm - N/A   Overcast
8:35 PM 41.0 °F - 37.4 °F 87% 30.10 in 10.0 mi Calm Calm - N/A   Mostly Cloudy
8:55 PM 39.6 °F - 35.8 °F 86% 30.11 in 10.0 mi Calm Calm - N/A   Scattered Clouds
9:15 PM 40.3 °F - 37.6 °F 90% 30.11 in 10.0 mi Calm Calm - N/A   Mostly Cloudy
9:35 PM 39.9 °F - 37.9 °F 93% 30.11 in 10.0 mi Calm Calm - N/A   Overcast
9:55 PM 41.0 °F - 39.4 °F 94% 30.12 in 10.0 mi Calm Calm - N/A   Overcast
10:15 PM 42.1 °F - 40.1 °F 93% 30.13 in 10.0 mi Calm Calm - N/A   Overcast
10:35 PM 42.4 °F - 39.9 °F 91% 30.13 in 10.0 mi Calm Calm - N/A   Overcast
10:55 PM 42.4 °F - 38.5 °F 86% 30.12 in 10.0 mi Calm Calm - N/A   Overcast
11:15 PM 42.8 °F - 39.0 °F 86% 30.12 in 10.0 mi Calm Calm - N/A   Overcast
11:35 PM 42.8 °F - 39.4 °F 88% 30.12 in 10.0 mi Calm Calm - N/A   Overcast
11:55 PM 42.8 °F - 40.5 °F 91% 30.12 in 10.0 mi Calm Calm - N/A   Overcast